User: anonymous   Login
Location: Berg
(48.4333°N, 13.9167°E)
Time: 17:47:06
(UTC+00:00)
Language:

Sich 1 Rocket - Orbit

View from above orbital plane
View from above orbital plane
View from above satellite
View from above satellite

Ground track
Ground track

The orbit data is extracted from the following two-line orbital elements,

1 23659U 95046C   20338.43755455  .00000127  00000-0  14185-4 0  9996
2 23659  82.5316 211.3801 0026927  56.8709 115.8072 14.78354313361473
Epoch (UTC): 03 December 2020 10:30:04
Eccentricity: 0.0026927
inclination: 82.5316°
perigee height: 615 km
apogee height: 653 km
right ascension of ascending node: 211.3801°
argument of perigee: 56.8709°
revolutions per day: 14.78354313
mean anomaly at epoch: 115.8072°
orbit number at epoch: 36147

The dashed part of the orbit path shows where the satellite is in the earth's shadow,  

DLR